Cook, MN

6:28 PM CDT on August 24, 2016 (GMT -0500)
Cook Municipal

Weather History for KCQM - April, 2013

Change the Weather History Date:

Saturday, April 6, 2013

  Actual Average Record
Temperature  
Mean Temperature 30 °F -  
Max Temperature 33 °F 43 °F 60 °F (2004)
Min Temperature 26 °F 23 °F 3 °F (2007)
Degree Days  
Heating Degree Days 36    
Moisture  
Dew Point 29 °F    
Average Humidity 92    
Maximum Humidity 100    
Minimum Humidity 86    
Precipitation  
Precipitation 0.11 in - - ()
Sea Level Pressure  
Sea Level Pressure 29.73 in    
Wind  
Wind Speed 4 mph (East)    
Max Wind Speed 7 mph    
Max Gust Speed -    
Visibility 6 miles    
Events Rain , Snow    
Averages and records for this station are not official NWS values.
T = Trace of Precipitation, MM = Missing Value Source: NWS Daily Summary

Daily Weather History Graph

Daily Weather History Graph

Search for Another Location

Airport or City:

Trip Planner

Search our weather history database for the weather conditions in past years. The results will help you decide how hot, cold, wet, or windy it might be!

Date:

Astronomy

Apr. 06, 2013 Rise Set
Actual Time 6:38 AM CDT 7:48 PM CDT
Civil Twilight 6:06 AM CDT 8:20 PM CDT
Nautical Twilight 5:28 AM CDT 8:58 PM CDT
Astronomical Twilight 4:48 AM CDT 9:39 PM CDT
Moon 4:38 AM CDT (4/6) 4:03 PM CDT (4/6)
Length of Visible Light 14h 13m
Length of Day
13h 09m
Waning Crescent, 15% of the Moon is Illuminated
Apr 6
Waning Crescent
Apr 10
New
Apr 18
First Quarter
Apr 25
Full
May 2
Last Quarter

Hourly Weather History & Observations

Time (CDT) Temp. Windchill Dew Point Humidity Pressure Visibility Wind Dir Wind Speed Gust Speed Precip Events Conditions
12:17 AM 28.4 °F 22.2 °F 24.8 °F 86% 29.98 in 5.0 mi SE 5.8 mph - N/A Snow Light Snow
12:36 AM 28.4 °F 21.2 °F 24.8 °F 86% 29.98 in 2.5 mi SE 6.9 mph - N/A Snow Light Snow
12:56 AM 26.6 °F 22.6 °F 24.8 °F 93% 29.97 in 1.8 mi ESE 3.5 mph - N/A Snow Light Snow
1:17 AM 26.6 °F 20.0 °F 24.8 °F 93% 29.96 in 1.5 mi ESE 5.8 mph - N/A Snow Light Snow
1:36 AM 26.6 °F 21.2 °F 24.8 °F 93% 29.95 in 1.5 mi ESE 4.6 mph - N/A Snow Light Snow
1:56 AM 26.6 °F 22.6 °F 24.8 °F 93% 29.94 in 1.8 mi ESE 3.5 mph - N/A Snow Light Snow
2:17 AM 26.6 °F 21.2 °F 24.8 °F 93% 29.93 in 1.8 mi East 4.6 mph - N/A Snow Light Snow
2:36 AM 26.6 °F 20.0 °F 24.8 °F 93% 29.91 in 7.0 mi ESE 5.8 mph - N/A Snow Light Snow
2:56 AM 26.6 °F 20.0 °F 24.8 °F 93% 29.90 in 5.0 mi East 5.8 mph - N/A Snow Light Snow
3:16 AM 26.6 °F 20.0 °F 24.8 °F 93% 29.89 in 10.0 mi East 5.8 mph - N/A Snow Light Snow
3:36 AM 26.6 °F 20.0 °F 24.8 °F 93% 29.87 in 7.0 mi East 5.8 mph - N/A Snow Light Snow
3:56 AM 26.6 °F 20.0 °F 24.8 °F 93% 29.86 in 7.0 mi East 5.8 mph - N/A Snow Light Snow
4:16 AM 26.6 °F 21.2 °F 24.8 °F 93% 29.85 in 10.0 mi East 4.6 mph - N/A   Overcast
4:37 AM 26.6 °F 20.0 °F 24.8 °F 93% 29.83 in 10.0 mi East 5.8 mph - N/A   Overcast
4:56 AM 26.6 °F 20.0 °F 24.8 °F 93% 29.82 in 10.0 mi East 5.8 mph - N/A   Overcast
5:16 AM 26.6 °F 21.2 °F 24.8 °F 93% 29.81 in 10.0 mi East 4.6 mph - N/A   Overcast
5:37 AM 26.6 °F 21.2 °F 24.8 °F 93% 29.81 in 10.0 mi East 4.6 mph - N/A   Overcast
5:57 AM 28.4 °F - 26.6 °F 93% 29.80 in 10.0 mi Calm Calm - N/A   Overcast
6:16 AM 28.4 °F - 26.6 °F 93% 29.80 in 10.0 mi Calm Calm - N/A   Overcast
6:37 AM 28.4 °F - 26.6 °F 93% 29.79 in 10.0 mi Calm Calm - N/A   Overcast
6:57 AM 28.4 °F - 26.6 °F 93% 29.78 in 10.0 mi Calm Calm - N/A   Overcast
7:16 AM 28.4 °F 24.6 °F 26.6 °F 93% 29.76 in 10.0 mi East 3.5 mph - N/A   Overcast
7:37 AM 30.2 °F 24.3 °F 28.4 °F 93% 29.76 in 10.0 mi ESE 5.8 mph - N/A   Overcast
7:57 AM 30.2 °F 23.4 °F 28.4 °F 93% 29.76 in 10.0 mi ESE 6.9 mph - N/A   Overcast
8:16 AM 30.2 °F 24.3 °F 28.4 °F 93% 29.75 in 10.0 mi ESE 5.8 mph - N/A   Overcast
8:37 AM 32.0 °F 27.5 °F 28.4 °F 87% 29.75 in 10.0 mi ESE 4.6 mph - N/A   Overcast
8:56 AM 32.0 °F 26.4 °F 28.4 °F 87% 29.73 in 10.0 mi ESE 5.8 mph - N/A   Overcast
9:16 AM 32.0 °F 27.5 °F 28.4 °F 87% 29.72 in 10.0 mi SE 4.6 mph - N/A Snow Light Snow
9:36 AM 32.0 °F 28.7 °F 28.4 °F 87% 29.72 in 4.0 mi ESE 3.5 mph - N/A Snow Light Snow
9:56 AM 32.0 °F 28.7 °F 28.4 °F 87% 29.71 in 2.5 mi ESE 3.5 mph - N/A Snow Light Snow
10:17 AM 32.0 °F 28.7 °F 30.2 °F 93% 29.69 in 0.8 mi East 3.5 mph - 0.02 in Snow Light Snow
10:36 AM 32.0 °F 28.7 °F 30.2 °F 93% 29.69 in 0.8 mi ESE 3.5 mph - 0.02 in Snow Light Snow
10:56 AM 32.0 °F - 30.2 °F 93% 29.68 in 1.2 mi Calm Calm - N/A Snow Light Snow
11:17 AM 32.0 °F 28.7 °F 30.2 °F 93% 29.68 in 0.8 mi East 3.5 mph - N/A Snow Light Snow
11:36 AM 32.0 °F 28.7 °F 30.2 °F 93% 29.68 in 0.5 mi ESE 3.5 mph - 0.01 in Snow Light Snow
11:56 AM 32.0 °F - 30.2 °F 93% 29.67 in 0.5 mi Calm Calm - N/A Snow Snow
12:16 PM 32.0 °F - 30.2 °F 93% 29.66 in 0.5 mi Calm Calm - N/A Snow Snow
12:36 PM 32.0 °F 28.7 °F 30.2 °F 93% 29.66 in 0.5 mi East 3.5 mph - 0.02 in Snow Light Snow
12:57 PM 32.0 °F 27.5 °F 30.2 °F 93% 29.65 in 0.5 mi ESE 4.6 mph - N/A Snow Snow
1:16 PM 32.0 °F - 30.2 °F 93% 29.65 in 0.5 mi Calm Calm - 0.02 in Snow Snow
1:37 PM 32.0 °F - 30.2 °F 93% 29.64 in 0.5 mi Calm Calm - 0.03 in Snow Snow
1:56 PM 32.0 °F - 30.2 °F 93% 29.64 in 0.5 mi Calm Calm - N/A Snow Snow
2:17 PM 32.0 °F - 30.2 °F 93% 29.63 in 0.5 mi Calm Calm - 0.01 in Snow Snow
2:36 PM 32.0 °F - 32.0 °F 100% 29.63 in 0.5 mi Calm Calm - 0.02 in Snow Snow
2:56 PM 32.0 °F 28.7 °F 30.2 °F 93% 29.63 in 0.8 mi East 3.5 mph - N/A Snow Light Snow
3:17 PM 32.0 °F - 30.2 °F 93% 29.63 in 1.0 mi Calm Calm - 0.01 in Snow Light Snow
3:36 PM 33.8 °F - 32.0 °F 93% 29.63 in 0.8 mi Calm Calm - 0.01 in Snow Light Snow
3:56 PM 32.0 °F - 30.2 °F 93% 29.62 in 3.0 mi Calm Calm - N/A Snow Light Snow
4:17 PM 33.8 °F - 30.2 °F 87% 29.63 in 2.0 mi Calm Calm - N/A Snow Light Snow
4:36 PM 33.8 °F - 30.2 °F 87% 29.63 in 1.8 mi Calm Calm - N/A Snow Light Snow
4:56 PM 33.8 °F - 32.0 °F 93% 29.62 in 1.8 mi Calm Calm - N/A Snow Light Snow
5:17 PM 33.8 °F - 30.2 °F 87% 29.63 in 5.0 mi Calm Calm - N/A Rain Light Rain
5:36 PM 33.8 °F - 30.2 °F 87% 29.63 in 10.0 mi Calm Calm - N/A   Overcast
5:56 PM 33.8 °F - 32.0 °F 93% 29.64 in 10.0 mi Calm Calm - N/A   Overcast
6:16 PM 33.8 °F - 32.0 °F 93% 29.64 in 10.0 mi Calm Calm - N/A   Overcast
6:36 PM 33.8 °F - 32.0 °F 93% 29.65 in 10.0 mi Calm Calm - N/A   Overcast
6:57 PM 33.8 °F - 32.0 °F 93% 29.65 in 10.0 mi Calm Calm - N/A   Overcast
7:17 PM 33.8 °F - 32.0 °F 93% 29.65 in 10.0 mi Calm Calm - N/A   Overcast
7:36 PM 33.8 °F - 32.0 °F 93% 29.66 in 10.0 mi Calm Calm - N/A   Overcast
7:57 PM 33.8 °F - 32.0 °F 93% 29.66 in 10.0 mi Calm Calm - N/A   Overcast
8:17 PM 33.8 °F - 32.0 °F 93% 29.66 in 7.0 mi Calm Calm - N/A   Overcast
8:36 PM 33.8 °F - 32.0 °F 93% 29.66 in 10.0 mi Calm Calm - N/A   Overcast
8:57 PM 33.8 °F - 32.0 °F 93% 29.67 in 10.0 mi Calm Calm - N/A   Overcast
9:17 PM 33.8 °F 30.8 °F 32.0 °F 93% 29.68 in 7.0 mi NW 3.5 mph - N/A   Overcast
9:36 PM 33.8 °F - 32.0 °F 93% 29.68 in 10.0 mi Calm Calm - N/A   Overcast
9:57 PM 32.0 °F 28.7 °F 30.2 °F 93% 29.69 in 10.0 mi NW 3.5 mph - N/A   Overcast
10:16 PM 32.0 °F 28.7 °F 30.2 °F 93% 29.69 in 10.0 mi NNW 3.5 mph - N/A   Overcast
10:37 PM 32.0 °F 27.5 °F 30.2 °F 93% 29.69 in 10.0 mi NW 4.6 mph - N/A   Overcast
10:57 PM 32.0 °F 26.4 °F 30.2 °F 93% 29.69 in 5.0 mi NNW 5.8 mph - N/A Snow Light Snow
11:16 PM 32.0 °F - 30.2 °F 93% 29.69 in 10.0 mi Calm Calm - N/A   Overcast
11:37 PM 32.0 °F 28.7 °F 30.2 °F 93% 29.69 in 10.0 mi NNW 3.5 mph - N/A   Overcast
11:57 PM 32.0 °F 27.5 °F 30.2 °F 93% 29.70 in 10.0 mi NNW 4.6 mph - N/A   Overcast